When you browse on this site, cookies collect data to enhance your experience and personalize the content and advertising you see.
Visit our Privacy Policy to learn more. By continuing to use the site, you agree to this use of cookies and data.
  • In Romania
  • List of Countries
  • For 7 days
  • Water Temperature
  • Weather Map
  • Weather Widgets
  • user-avatar
    Login

    Hourly Weather Buenos Aires

    Today, 7 June, Sunday

    Time Temperature Precipitation Wind Pressure Humidity
    00:00 +16°C° 0 mm 2 mps 759 mmHg 87%
    01:00 +16°C° 0 mm 2 mps 760 mmHg 87%
    02:00 +16°C° 0 mm 2 mps 760 mmHg 87%
    03:00 +16°C° 0 mm 2 mps 760 mmHg 88%
    04:00 +16°C° 0 mm 2 mps 760 mmHg 89%
    05:00 +15°C° 0 mm 2 mps 760 mmHg 90%
    06:00 +15°C° 0 mm 2 mps 761 mmHg 90%
    07:00 +15°C° 0 mm 2 mps 761 mmHg 89%
    08:00 +15°C° 0 mm 2 mps 762 mmHg 89%
    09:00 +16°C° 0 mm 2 mps 762 mmHg 83%
    10:00 +18°C° 0 mm 1 mps 762 mmHg 77%
    11:00 +19°C° 0 mm 1 mps 762 mmHg 71%
    12:00 +20°C° 0 mm 1 mps 762 mmHg 69%
    13:00 +20°C° 0 mm 1 mps 761 mmHg 68%
    14:00 +20°C° 0 mm 1 mps 761 mmHg 66%
    15:00 +20°C° 0 mm 1 mps 761 mmHg 68%
    16:00 +20°C° 0 mm 1 mps 761 mmHg 70%
    17:00 +19°C° 0 mm 1 mps 761 mmHg 71%
    18:00 +19°C° 0 mm 1 mps 762 mmHg 71%
    19:00 +19°C° 0 mm 1 mps 762 mmHg 71%
    20:00 +19°C° 0 mm 1 mps 762 mmHg 70%
    21:00 +19°C° 0 mm 1 mps 762 mmHg 70%
    22:00 +19°C° 0 mm 1 mps 762 mmHg 70%
    23:00 +18°C° 0 mm 1 mps 761 mmHg 69%

    Tomorrow, 8 June, Monday

    Time Temperature Precipitation Wind Pressure Humidity
    00:00 +18°C° 0 mm 1 mps 761 mmHg 72%
    01:00 +17°C° 0 mm 2 mps 761 mmHg 74%
    02:00 +16°C° 0 mm 2 mps 761 mmHg 77%
    03:00 +16°C° 0 mm 2 mps 761 mmHg 78%
    04:00 +16°C° 0 mm 2 mps 761 mmHg 79%
    05:00 +15°C° 0 mm 2 mps 761 mmHg 80%
    06:00 +16°C° 0 mm 2 mps 761 mmHg 79%
    07:00 +16°C° 0 mm 2 mps 762 mmHg 78%
    08:00 +16°C° 0 mm 2 mps 762 mmHg 77%
    09:00 +17°C° 0 mm 2 mps 762 mmHg 71%
    10:00 +18°C° 0 mm 2 mps 762 mmHg 66%
    11:00 +19°C° 0 mm 2 mps 762 mmHg 60%
    12:00 +19°C° 0 mm 2 mps 761 mmHg 57%
    13:00 +20°C° 0 mm 2 mps 760 mmHg 55%
    14:00 +20°C° 0 mm 2 mps 760 mmHg 52%
    15:00 +20°C° 0 mm 2 mps 760 mmHg 55%
    16:00 +19°C° 0 mm 2 mps 760 mmHg 58%
    17:00 +18°C° 0 mm 2 mps 760 mmHg 61%
    18:00 +18°C° 0 mm 2 mps 760 mmHg 65%
    19:00 +17°C° 0 mm 2 mps 760 mmHg 68%
    20:00 +17°C° 0 mm 2 mps 760 mmHg 71%
    21:00 +16°C° 0 mm 2 mps 760 mmHg 73%
    22:00 +16°C° 0 mm 2 mps 760 mmHg 74%
    23:00 +16°C° 0 mm 2 mps 760 mmHg 75%

    Day after tomorrow, 9 June, Tuesday

    Time Temperature Precipitation Wind Pressure Humidity
    00:00 +15°C° 0 mm 2 mps 760 mmHg 75%
    01:00 +15°C° 0 mm 2 mps 760 mmHg 75%
    02:00 +15°C° 0 mm 2 mps 760 mmHg 74%
    03:00 +15°C° 0 mm 2 mps 760 mmHg 75%
    04:00 +14°C° 0 mm 2 mps 760 mmHg 76%
    05:00 +14°C° 0 mm 2 mps 760 mmHg 76%
    06:00 +14°C° 0 mm 2 mps 760 mmHg 76%
    07:00 +14°C° 0 mm 2 mps 760 mmHg 76%
    08:00 +14°C° 0 mm 1 mps 760 mmHg 75%
    09:00 +16°C° 0 mm 1 mps 760 mmHg 69%
    10:00 +18°C° 0 mm 1 mps 760 mmHg 63%
    11:00 +17°C° 0 mm 0 mps 760 mmHg 57%
    12:00 +18°C° 0 mm 0 mps 759 mmHg 54%
    13:00 +21°C° 0 mm 1 mps 759 mmHg 52%
    14:00 +21°C° 0 mm 1 mps 758 mmHg 49%
    15:00 +20°C° 0 mm 1 mps 758 mmHg 52%
    16:00 +18°C° 0 mm 2 mps 758 mmHg 56%
    17:00 +18°C° 0 mm 2 mps 758 mmHg 59%
    18:00 +17°C° 0 mm 2 mps 758 mmHg 61%
    19:00 +17°C° 0 mm 2 mps 758 mmHg 63%
    20:00 +16°C° 0 mm 2 mps 758 mmHg 65%
    21:00 +16°C° 0 mm 2 mps 758 mmHg 70%
    22:00 +15°C° 0 mm 2 mps 758 mmHg 74%
    23:00 +15°C° 0 mm 2 mps 758 mmHg 78%

    10 June, Wednesday

    Time Temperature Precipitation Wind Pressure Humidity
    00:00 +15°C° 0 mm 2 mps 758 mmHg 79%
    01:00 +15°C° 0 mm 2 mps 758 mmHg 81%
    02:00 +14°C° 0 mm 2 mps 758 mmHg 83%
    03:00 +14°C° 0 mm 2 mps 758 mmHg 82%
    04:00 +14°C° 0 mm 2 mps 758 mmHg 82%
    05:00 +14°C° 0 mm 1 mps 758 mmHg 82%
    06:00 +14°C° 0 mm 1 mps 758 mmHg 81%
    07:00 +14°C° 0 mm 1 mps 758 mmHg 80%
    08:00 +14°C° 0 mm 2 mps 759 mmHg 79%
    09:00 +15°C° 0 mm 2 mps 759 mmHg 73%
    10:00 +17°C° 0 mm 2 mps 759 mmHg 67%
    11:00 +18°C° 0 mm 2 mps 759 mmHg 61%
    12:00 +19°C° 0 mm 2 mps 759 mmHg 57%
    13:00 +21°C° 0 mm 1 mps 759 mmHg 53%
    14:00 +22°C° 0 mm 1 mps 758 mmHg 49%
    15:00 +21°C° 0 mm 1 mps 758 mmHg 50%
    16:00 +20°C° 0 mm 1 mps 758 mmHg 52%
    17:00 +19°C° 0 mm 1 mps 759 mmHg 54%
    18:00 +18°C° 0 mm 1 mps 759 mmHg 58%
    19:00 +17°C° 0 mm 2 mps 759 mmHg 62%
    20:00 +16°C° 0 mm 2 mps 759 mmHg 65%
    21:00 +16°C° 0 mm 2 mps 759 mmHg 67%
    22:00 +15°C° 0 mm 2 mps 759 mmHg 69%
    23:00 +15°C° 0 mm 2 mps 759 mmHg 71%

    11 June, Thursday

    Time Temperature Precipitation Wind Pressure Humidity
    00:00 +14°C° 0 mm 3 mps 759 mmHg 74%
    01:00 +14°C° 0 mm 3 mps 759 mmHg 76%
    02:00 +13°C° 0 mm 3 mps 759 mmHg 78%
    03:00 +13°C° 0 mm 3 mps 758 mmHg 80%
    04:00 +13°C° 0 mm 3 mps 758 mmHg 82%
    05:00 +14°C° 0 mm 2 mps 757 mmHg 84%
    06:00 +14°C° 0 mm 2 mps 757 mmHg 83%
    07:00 +14°C° 0 mm 2 mps 757 mmHg 82%
    08:00 +14°C° 0 mm 2 mps 757 mmHg 82%
    09:00 +15°C° 0 mm 2 mps 757 mmHg 77%
    10:00 +16°C° 0 mm 2 mps 757 mmHg 73%
    11:00 +17°C° 0 mm 2 mps 756 mmHg 69%
    12:00 +17°C° 0.2 mm 2 mps 756 mmHg 69%
    13:00 +17°C° 0.2 mm 3 mps 755 mmHg 69%
    14:00 +17°C° 0.2 mm 3 mps 754 mmHg 70%
    15:00 +16°C° 0.6 mm 3 mps 754 mmHg 73%
    16:00 +16°C° 0.6 mm 2 mps 754 mmHg 76%
    17:00 +16°C° 0.6 mm 2 mps 754 mmHg 79%
    18:00 +15°C° 0 mm 2 mps 754 mmHg 80%
    19:00 +15°C° 0 mm 2 mps 755 mmHg 80%
    20:00 +15°C° 0 mm 2 mps 755 mmHg 81%
    21:00 +15°C° 0 mm 2 mps 755 mmHg 84%
    22:00 +14°C° 0 mm 1 mps 755 mmHg 87%
    23:00 +14°C° 0 mm 1 mps 755 mmHg 89%

    12 June, Friday

    Time Temperature Precipitation Wind Pressure Humidity
    00:00 +14°C° 0 mm 1 mps 755 mmHg 91%
    01:00 +14°C° 0 mm 2 mps 754 mmHg 93%
    02:00 +14°C° 0 mm 2 mps 754 mmHg 95%
    03:00 +13°C° 0 mm 2 mps 754 mmHg 96%
    04:00 +13°C° 0 mm 2 mps 754 mmHg 96%
    05:00 +13°C° 0 mm 1 mps 754 mmHg 97%
    06:00 +13°C° 0 mm 1 mps 754 mmHg 95%
    07:00 +14°C° 0 mm 1 mps 755 mmHg 94%
    08:00 +14°C° 0 mm 1 mps 755 mmHg 92%
    09:00 +15°C° 0 mm 1 mps 756 mmHg 88%
    10:00 +15°C° 0 mm 1 mps 756 mmHg 83%
    11:00 +16°C° 0 mm 1 mps 756 mmHg 79%
    12:00 +17°C° 0 mm 2 mps 756 mmHg 76%
    13:00 +18°C° 0 mm 2 mps 756 mmHg 73%
    14:00 +18°C° 0 mm 3 mps 756 mmHg 70%
    15:00 +17°C° 0.3 mm 4 mps 756 mmHg 70%
    16:00 +14°C° 0.3 mm 4 mps 757 mmHg 70%
    17:00 +13°C° 0.3 mm 5 mps 757 mmHg 70%
    18:00 +13°C° 0.1 mm 4 mps 758 mmHg 69%
    19:00 +13°C° 0.1 mm 3 mps 759 mmHg 69%
    20:00 +14°C° 0.1 mm 2 mps 760 mmHg 69%
    21:00 +12°C° 0 mm 3 mps 760 mmHg 65%
    22:00 +12°C° 0 mm 4 mps 760 mmHg 62%
    23:00 +12°C° 0 mm 5 mps 761 mmHg 58%
    Show more